Regional Weather Roundup
Issued by NWS Charleston, SC

Current Version | Previous Version | Text Only | Print | Product List | Glossary Off
Versions: 1 2 3 4 5 6 7 8 9 10 11 12 13 14 15 16 17 18 19 20 21 22 23 24 25 26 27 28 29 30 31 32 33 34 35 36 37 38 39 40 41 42 43 44 45 46 47 48 49 50

000
ASUS42 KCHS 241013
RWRCHS

REGIONAL WEATHER ROUNDUP
NATIONAL WEATHER SERVICE CHARLESTON SC
600 AM EDT SUN JUL 24 2016

NOTE: "FAIR" INDICATES FEW OR NO CLOUDS BELOW 12,000 FEET WITH NO
SIGNIFICANT WEATHER AND/OR OBSTRUCTIONS TO VISIBILITY.

NOT ALL STATIONS ARE QUALITY CONTROLLED. USE DATA WITH CAUTION...
ESPECIALLY DEWPOINT OBSERVATIONS.

SCZ027-030-031-034>040-042>050-241100-
...SOUTHEAST SOUTH CAROLINA...

CITY           SKY/WX    TMP DP  RH WIND       PRES   REMARKS
N CHARLESTON   CLEAR     78  75  90 CALM      30.01R
WATERFRONT PRK   N/A     82  78  88 CALM      29.98S HX  91
MOUNT PLEASANT FAIR      77  75  94 CALM      30.01R
JOHNS ISLAND   FAIR      79  77  94 CALM      30.01R
PINOPOLIS        N/A     81  77  89 SW7       29.93S
MONCKS CORNER  FAIR      73  72  94 CALM      30.01R
SUMMERVILLE    NOT AVBL
BEAUFORT MCAS  CLEAR     79  74  84 CALM      30.02R
BEAUFORT ARPT  FAIR      79  75  89 SW5       30.01R
HILTON HEAD IS NOT AVBL
WALTERBORO     SUNNY     79  79 100 CALM      30.02R
ALLENDALE      FAIR      75  72  88 CALM      30.00S

...SOUTHERN MIDLANDS AND PEE DEE...

CITY           SKY/WX    TMP DP  RH WIND       PRES   REMARKS
GEORGETOWN     FAIR      75  73  94 CALM      30.02R
KINGSTREE      FAIR      72  70  94 CALM      30.00S
ORANGEBURG     CLEAR     75  72  90 CALM      30.01R
BARNWELL       NOT AVBL
AIKEN          FAIR      72  68  88 CALM      30.05R
MANNING        FAIR      75  72  88 CALM      30.01R
COLUMBIA       CLEAR     76  72  87 CALM      30.00R
SUMTER         CLEAR     76  72  87 S3        29.99R
FLORENCE       CLEAR     77  74  90 SW3       30.00S
MYRTLE BEACH   NOT AVBL
N MYRTLE BEACH CLEAR     81  76  84 W5        30.00S

$$

GAZ063-065-086>088-099>101-113>116-118-119-134>141-150-241100-
...SOUTHEAST GEORGIA...

CITY           SKY/WX    TMP DP  RH WIND       PRES   REMARKS
SAVANNAH ARPT  PTCLDY    78  72  81 SW5       30.02R
HUNTER AAF     CLEAR     78  77  95 SW2       29.99R
FORT STEWART   CLEAR     74  72  91 CALM      29.99R
STATESBORO     CLEAR     75  74  97 CALM      30.01R
SYLVANIA       NOT AVBL
CLAXTON        FAIR      73  73 100 CALM      30.02R

...CSRA...CENTRAL AND FAR SOUTHEAST GEORGIA...

CITY           SKY/WX    TMP DP  RH WIND       PRES   REMARKS
THOMSON        CLEAR     76  73  91 CALM      30.06S
AUGUSTA-BUSH   CLEAR     71  70  96 SE3       30.00R
AUGUSTA-DANIEL CLEAR     77  69  76 SW3       30.02S
SWAINSBORO     FAIR      72  72 100 CALM      30.03R
VIDALIA        CLEAR     73  70  88 CALM      30.02R
EASTMAN        FAIR      74  74 100 CALM      30.04R
HAZLEHURST     FAIR      74  74 100 CALM      30.01R
ALMA           PTCLDY    72  71  97 CALM      30.01R
WAYCROSS       PTCLDY    75  75  99 CALM      30.02R
JESUP          FAIR      73  73 100 CALM      30.02R
BAXLEY         FAIR      73  73 100 CALM      30.01R
BRUNSWICK      CLEAR     73  73 100 CALM      30.02R
SAINT SIMONS   CLEAR     80  74  81 SW6       30.01R

$$

SCZ027-028-034-036>038-045-046-048>050-GAZ119-141-241100-
...LAKE AND SUPPLEMENTAL COASTAL OBSERVATIONS...

STATION/POSITION TIME  TEMP    WIND        PRES    WAVE   SWELL
                       AIR SEA DIR/SP/G            HT/PER HT/PER/DIR
                 (UTC) (F)     (DEG/KT/KT) (MB)    (FT/S) (FT/S/D)
WINYAH BAY       NOT AVBL
LAKE MURRAY      0900   81     250/  3/  7 1015.2S
ACE BASIN NERRS  NOT AVBL
FORT PULASKI     0900   81 88  240/  4/  6 1016.3F
SAPELO ISLAND    0900   80     200/  5     1016.0S

$$

ANZ835-935-AMZ111-154-330-350-352-354-370-450-454-472-241100-
...C-MAN AND BUOY OBSERVATIONS...

STATION/POSITION TIME  TEMP    WIND        PRES    WAVE   SWELL
                       AIR SEA DIR/SP/G            HT/PER HT/PER/DIR
                 (UTC) (F)     (DEG/KT/KT) (MB)    (FT/S) (FT/S/D)
BUOY 41004       0950   85 86  240/ 10/ 12 1015.8R   3/ 8   2/110/ 8
BUOY 41008       0950   85 86  200/ 12/ 14 1016.1R   3/ 4   2/100/ 8
FOLLY BEACH CMAN 0900   83     230/  6/  8 1016.0F
CAPERS NEARSHORE 0908   84 83  240/ 12/ 16 1015.8F
FRIPP NEARSHORE  0908   85 86  240/ 12/ 16 1015.0F


STATION/POSITION TIME  TEMP    WIND        PRES    WAVE   SWELL
                       AIR SEA DIR/SP/G            HT/PER HT/PER/DIR
                 (UTC) (F)     (DEG/KT/KT) (MB)    (FT/S) (FT/S/D)
5E ST. MARYS GA  0901      86                N/A     3/ 9
FRYING PAN BUOY  0900   83 85  230/ 14/ 19 1016.0F
BUOY 41025       0950   83 85  250/ 12/ 16 1016.5R   3/ 4   2/130/10
CAPE LOOKOUT NC  1000   82     240/  7/  8 1016.0R
BUOY 41002       0950   82 84     CALM     1017.5R   3/ 8
BUOY 41010       0920   84 87   CALM  /  2 1016.7
ST AUGUSTINE FL  1000   76 85  210/  4/  5 1017.7R


$$




USA.gov is the U.S. government's official web portal to all federal, state and local government web resources and services.